IQ8VX-3 Weather Reports


time (UTC)temp
C
wind
direction
speed
KPH
gust
KPH
rain 1hr
cm
rain 24hr
cm
rain mn
cm
humidity
%
barometer
mb
20260504045637 14 0.0 0.0 0.00 0.00 0.00 97 1691.9
20260504043636 13 0.0 0.0 0.00 0.00 0.00 99 1689.8
20260504041636 12 0.0 0.0 0.00 0.00 0.00 99 1688.2
20260504035636 12 0.0 0.0 0.00 0.00 0.00 99 1686.5
20260504033635 12 0.0 0.0 0.00 0.00 0.00 99 1686.2
20260504031635 12 0.0 0.0 0.00 0.00 0.00 98 1686.0
20260504025635 12 0.0 0.0 0.00 0.00 0.00 97 1685.8
20260504023634 11 0.0 0.0 0.00 0.00 0.00 96 1685.1
20260504021634 11 0.0 0.0 0.00 0.00 0.00 96 1685.4
20260504015634 12 0.0 0.0 0.00 0.00 0.00 95 1685.7
20260504013633 12 0.0 0.0 0.00 0.00 0.00 95 1686.3
20260504011633 12 0.0 0.0 0.00 0.00 0.00 95 1687.3
20260504005633 12 0.0 0.0 0.00 0.00 0.00 95 1687.8
20260504003632 12 0.0 0.0 0.00 0.00 0.00 94 1687.7
20260504001632 12 0.0 0.0 0.00 0.00 0.00 93 1687.7
20260503235632 13 0.0 0.0 0.00 0.00 0.00 93 1688.9
20260503233631 13 0.0 0.0 0.00 0.00 0.00 92 1688.5
20260503231631 13 0.0 0.0 0.00 0.00 0.00 92 1689.2
20260503225631 13 0.0 0.0 0.00 0.00 0.00 92 1689.5
20260503223631 13 0.0 0.0 0.00 0.00 0.00 91 1689.5
20260503221630 13 0.0 0.0 0.00 0.00 0.00 91 1689.9
20260503215630 13 0.0 0.0 0.00 0.00 0.00 89 1689.9
20260503213630 13 0.0 0.0 0.00 0.00 0.00 88 1689.7
20260503211629 13 0.0 0.0 0.00 0.00 0.00 87 1690.3
20260503205629 13 0.0 0.0 0.00 0.00 0.00 87 1690.8
20260503203629 13 0.0 0.0 0.00 0.00 0.00 85 1690.9
20260503201628 13 0.0 0.0 0.00 0.00 0.00 84 1691.3
20260503195628 14 0.0 0.0 0.00 0.00 0.00 83 1692.6
20260503193628 14 0.0 0.0 0.00 0.00 0.00 81 1692.6
20260503191627 15 0.0 0.0 0.00 0.00 0.00 80 1693.8
20260503185627 15 0.0 0.0 0.00 0.00 0.00 78 1695.5
20260503183627 16 0.0 0.0 0.00 0.00 0.00 78 1697.8
20260503181626 17 0.0 0.0 0.00 0.00 0.00 78 1698.7
20260503175626 17 0.0 0.0 0.00 0.00 0.00 78 1699.0
20260503173626 17 0.0 0.0 0.00 0.00 0.00 78 1699.7
20260503171625 18 0.0 0.0 0.00 0.00 0.00 78 1701.7
20260503081617 17 0.0 0.0 0.00 0.00 0.00 72 1700.3
20260503071616 15 0.0 0.0 0.00 0.00 0.00 74 1695.3
20260503053615 13 0.0 0.0 0.00 0.00 0.00 86 1690.7